QPF
0.00 0.00 0.00 0.00 0.00 0.00 0.00 0.00 0.00 0.00 0.00 0.00 0.00 0.00 0.00 0.00 0.00 0.00 0.00 0.00 0.00 0.00
0.00 0.01 0.00 0.00 0.00 0.00 0.00 0.00 0.00 0.00 0.00 0.00 0.00 0.00 0.00 0.00 0.00 0.00 0.00 0.00 0.00 0.00
0.04 0.03 0.00 0.00 0.00 0.00 0.00 0.00 0.00 0.00 0.00 0.00 0.00 0.00 0.00 0.00 0.00 0.00 0.00 0.00 0.00 0.00
0.02 0.00 0.00 0.00 0.00 0.00 0.00 0.00 0.00 0.00 0.00 0.00 0.00 0.00 0.00 0.00 0.00 0.00 0.00 0.00 0.00 0.00
0.00 0.00 0.00 0.00 0.00 0.00 0.00 0.00 0.00 0.00 0.00 0.00 0.00 0.00 0.00 0.00 0.00 0.00 0.00 0.00 0.00 0.00
0.00 0.00 0.00 0.00 0.00 0.00 0.00 0.00 0.00 0.00 0.00 0.00 0.00 0.00 0.00 0.00 0.00 0.00 0.00 0.00 0.00 0.00
0.00 0.00 0.00 0.00 0.00 0.01 0.04 0.01 0.00 0.00 0.00 0.00 0.00 0.00 0.00 0.00 0.00 0.00 0.00 0.00 0.00 0.00
0.00 0.00 0.00 0.00 0.01 0.02 0.02 0.00 0.00 0.00 0.00 0.00 0.00 0.00 0.00 0.00 0.00 0.00 0.00 0.00 0.00 0.00
0.00 0.00 0.00 0.00 0.02 0.05 0.02 0.00 0.00 0.00 0.00 0.00 0.00 0.00 0.00 0.00 0.00 0.00 0.00 0.00 0.00 0.00
0.15 0.02 0.00 0.01 0.03 0.02 0.00 0.00 0.00 0.00 0.00 0.00 0.00 0.00 0.00 0.00 0.00 0.00 0.00 0.00 0.00 0.00
0.15 0.08 0.03 0.00 0.00 0.00 0.00 0.00 0.00 0.00 0.00 0.00 0.00 0.00 0.00 0.00 0.00 0.00 0.00 0.00 0.00 0.00
0.08 0.05 0.00 0.00 0.00 0.00 0.00 0.00 0.00 0.00 0.00 0.00 0.00 0.00 0.00 0.00 0.00 0.00 0.00 0.00 0.00 0.00
0.02 0.00 0.00 0.00 0.00 0.00 0.00 0.00 0.00 0.00 0.00 0.00 0.00 0.00 0.00 0.00 0.00 0.00 0.00 0.00 0.00 0.00
0.00 0.00 0.00 0.00 0.00 0.00 0.00 0.00 0.00 0.00 0.00 0.00 0.00 0.00 0.00 0.00 0.00 0.00 0.00 0.00 0.00 0.00
MSLP
1013.38 1013.83 1014.09 1014.32 1014.66 1014.74 1014.86 1014.87 1014.77 1014.73 1014.66 1014.65 1014.37 1014.31 1014.21 1014.13 1014.03 1013.77 1013.46 1013.03 1012.62 1012.25
1013.29 1013.72 1013.98 1014.26 1014.53 1014.69 1014.76 1014.69 1014.68 1014.67 1014.62 1014.63 1014.52 1014.42 1014.24 1014.23 1014.16 1013.87 1013.47 1013.14 1012.67 1012.29
1013.42 1013.72 1013.89 1014.17 1014.53 1014.71 1014.81 1014.77 1014.74 1014.69 1014.64 1014.67 1014.58 1014.44 1014.33 1014.27 1014.23 1013.92 1013.61 1013.31 1012.97 1012.55
1013.42 1013.52 1013.93 1014.37 1014.71 1014.82 1014.86 1014.81 1014.81 1014.78 1014.78 1014.62 1014.52 1014.54 1014.46 1014.35 1014.21 1014.08 1013.86 1013.43 1013.27 1012.93
1013.13 1013.62 1014.10 1014.48 1014.64 1014.78 1014.84 1014.90 1014.98 1014.95 1014.74 1014.63 1014.56 1014.51 1014.59 1014.66 1014.52 1014.39 1014.18 1013.79 1013.46 1013.22
1013.27 1013.68 1014.16 1014.52 1014.65 1014.82 1014.89 1014.93 1015.20 1015.16 1015.13 1014.99 1014.82 1014.81 1014.78 1014.85 1014.79 1014.54 1014.39 1014.27 1014.01 1013.67
1013.42 1013.84 1013.98 1014.26 1014.49 1014.75 1014.88 1015.02 1015.36 1015.54 1015.53 1015.57 1015.64 1015.47 1015.19 1015.04 1014.99 1014.92 1014.86 1014.69 1014.37 1014.05
1012.92 1013.63 1014.31 1014.56 1014.65 1014.90 1015.18 1015.51 1015.84 1015.95 1016.11 1016.08 1016.11 1016.25 1015.93 1015.49 1015.31 1015.28 1015.20 1015.13 1014.90 1014.55
1013.53 1013.92 1014.24 1014.81 1015.11 1015.25 1015.57 1016.25 1016.78 1017.19 1016.96 1016.76 1016.74 1016.78 1016.40 1016.08 1015.86 1015.68 1015.66 1015.63 1015.34 1014.87
1014.04 1014.26 1014.66 1015.09 1015.46 1015.68 1016.25 1016.81 1017.38 1017.80 1017.54 1017.38 1017.02 1016.81 1016.76 1016.69 1016.52 1016.49 1016.46 1016.39 1016.19 1015.63
1013.58 1014.47 1014.86 1015.37 1015.71 1016.02 1016.57 1017.36 1017.91 1018.29 1018.10 1017.75 1017.81 1017.72 1017.37 1017.11 1017.05 1017.06 1016.86 1016.73 1016.55 1016.12
1014.09 1014.79 1015.18 1015.66 1016.17 1016.51 1017.04 1017.84 1018.30 1018.45 1018.44 1018.51 1018.38 1018.19 1017.96 1017.48 1017.22 1017.24 1017.17 1016.86 1016.55 1016.06
1014.61 1015.03 1015.54 1016.12 1016.62 1017.10 1017.37 1018.01 1018.36 1018.67 1018.84 1018.74 1018.61 1018.40 1018.11 1017.82 1017.57 1017.52 1017.24 1016.88 1016.40 1016.15
1014.70 1015.32 1015.90 1016.53 1017.15 1017.46 1017.98 1018.37 1018.56 1018.78 1018.95 1018.86 1018.73 1018.43 1018.26 1018.05 1017.74 1017.63 1017.37 1016.99 1016.53 1016.16
Thickness
5775 5769 5765 5763 5759 5757 5755 5754 5756 5755 5755 5754 5754 5753 5752 5751 5750 5750 5751 5753 5755 5755
5773 5766 5762 5759 5756 5754 5754 5754 5754 5754 5753 5752 5752 5751 5750 5747 5746 5747 5749 5750 5752 5753
5769 5765 5762 5757 5751 5748 5748 5750 5750 5750 5750 5748 5748 5747 5746 5744 5744 5745 5746 5747 5748 5749
5766 5765 5760 5754 5749 5745 5745 5747 5747 5747 5746 5745 5744 5743 5742 5742 5741 5740 5740 5742 5742 5743
5766 5762 5756 5751 5748 5746 5743 5743 5741 5742 5743 5742 5741 5740 5737 5735 5735 5733 5734 5735 5735 5735
5762 5758 5752 5746 5743 5742 5740 5739 5737 5735 5734 5734 5734 5731 5730 5729 5728 5728 5727 5725 5725 5725
5755 5751 5748 5744 5740 5737 5735 5733 5729 5726 5725 5724 5721 5721 5722 5723 5720 5719 5717 5716 5715 5715
5756 5749 5739 5735 5733 5730 5725 5721 5717 5714 5712 5712 5711 5709 5709 5711 5710 5707 5706 5704 5703 5703
5744 5742 5737 5729 5724 5721 5716 5708 5702 5696 5697 5698 5700 5698 5699 5699 5699 5698 5695 5692 5692 5693
5732 5732 5728 5723 5719 5715 5708 5701 5693 5686 5687 5686 5690 5691 5690 5688 5686 5684 5682 5680 5678 5680
5732 5725 5721 5714 5711 5708 5701 5692 5685 5679 5678 5678 5677 5677 5678 5677 5673 5670 5670 5669 5667 5667
5725 5718 5713 5707 5701 5698 5692 5682 5676 5672 5670 5667 5666 5665 5665 5665 5664 5661 5658 5659 5658 5659
5717 5712 5705 5699 5693 5687 5683 5675 5669 5664 5661 5660 5657 5657 5657 5655 5653 5651 5650 5647 5647 5646
5710 5703 5696 5689 5682 5679 5672 5665 5662 5659 5655 5652 5650 5649 5648 5646 5644 5641 5640 5638 5637 5635